Weather in Salisbury

United Kingdom     51°04′19″N   1°48′02″W
temp.,
°C
wind,
m/s
gust,
m/s
humid.,
%
clouds,
%
prec.,
mm/h
press.,
hPa
HPBL,
m
8 may, sat
sat801:00+6se41170100 0.0 1013337
04:00+7se61398100 1.9 1008609
07:00+11s91698100 9.6 1004942
10:00+12ssw91694100 3.1 1004918
13:00+13ssw101791100 3.1 1003920
16:00+15sw10188255 0.0 10021189
19:00+14ssw816843 0.0 10021091
22:00+10s4139614 0.0 1001501
9 may, sun
sun901:00+10s5149449 0.0 1000541
04:00+10s4139332 0.0 998434
07:00+11s513860 0.0 996485
10:00+15ssw8157964 0.0 9961115
13:00+16ssw9157322 0.0 9961216
16:00+13wsw51083100 0.1 996740
19:00+12sw4980100 0.2 996737
22:00+8s3594100 0.0 996109
10 may, mon
mon1001:00+8s389679 0.0 996217
04:00+9ssw5129674 0.0 996530
07:00+10ssw8128883 0.2 997844
10:00+12ssw9138213 0.8 9991198
13:00+13ssw10136925 1.4 10011564
16:00+13sw913635 0.1 10021527
19:00+11ssw5107532 0.1 10041048
22:00+7s359562 0.0 100685
11 may, tue
tue1101:00+8s369051 0.0 1006151
04:00+7ssw229427 0.0 100628
07:00+8s1692100 0.0 1007193
10:00+12ssw466889 0.0 10071078
13:00+13s676210 0.1 10081551
16:00+13s57623 0.0 10091347
19:00+11s46745 0.0 1010575
22:00+7s37935 0.0 1011129
12 may, wed
wed1201:00+7s36975 0.0 1011114
04:00+7sse259934 0.0 101092
07:00+8wsw379619 0.0 1011271
10:00+11sw467995 0.0 1011743
13:00+14sw676922 0.8 10111316
16:00+14ssw676364 0.3 10101302
19:00+12s357481 0.3 1011389
22:00+7se2382100 0.0 101148